GSAT0207 (GALILEO 15) 1 41859U 16069A 21109.63931866 .00000052 00000-0 00000-0 0 9991 2 41859 54.7057 153.3409 0005376 290.9537 69.0654 1.70473616 27271 GSAT0212 (GALILEO 16) 1 41860U 16069B 21111.83908751 .00000062 00000-0 00000-0 0 9996 2 41860 54.7037 153.2781 0004157 308.0703 51.9739 1.70473599 27561 GSAT0213 (GALILEO 17) 1 41861U 16069C 21112.20477503 .00000064 00000-0 00000-0 0 9997 2 41861 54.7062 153.2723 0005056 273.2285 86.7968 1.70473693 27434 GSAT0214 (GALILEO 18) 1 41862U 16069D 21112.35180749 .00000064 00000-0 00000-0 0 9997 2 41862 54.7051 153.2634 0004150 277.0226 83.0139 1.70473691 27567 ARIANE 5 R/B 1 41863U 16069E 21110.94863795 .00000058 00000-0 00000-0 0 9993 2 41863 54.6435 151.5174 0002404 308.0232 52.0323 1.73306100 27996